Flag for U.S.A. Weather past 2 weeks in Kennebunk, Maine, U.S.A.

Now
43 °F

Clear.


Feels Like: 38 °F
Forecast: 45 / 58 °F
Wind: 8 mph from South

Location: Sanford Municipal

Current Time: Oct 26, 2014 at 5:50:37 AM

Latest Report: Oct 26, 2014 at 5:35 AM


Visibility: 9 mi

Pressure: 29.42 "Hg

Humidity: 87%

Dew point: 39 °F

Location of KennebunkLocation

Historic Weather in Kennebunk — Graph

°F

Kennebunk temperature yesterday

Maximum temperature yesterday: 64 °F (at 1:35 PM)
Minimum temperature yesterday: 37 °F (at 3:55 AM)
Average temperature yesterday: 52 °F

Past Weeks' High & Low Weather Summary

 TemperatureHumidityPressure
High77 °F (Oct 15, 1:35 PM)94% (Oct 16, 3:35 AM)30.35 "Hg (Oct 16, 3:35 AM)
Low28 °F (Oct 12, 7:15 AM)28% (Oct 25, 3:55 PM)29.40 "Hg (Oct 26, 4:15 AM)
Average52 °F73%29.91 "Hg
* Reported Oct 11 4:15 AM — Oct 26 4:35 AM, Kennebunk, Weather by CustomWeather, © 2014

Note: Actual official high and low records may vary slightly from our data, if they occured in-between our weather recording intervals... More about our weather records

Advertising

Kennebunk weather history for previous 24 hours

 ConditionsComfort  
Time TempWeatherWind HumidityBarometerVisibility
4:35 AM
Oct 26
43 °FClear.No wind76%29.40 "Hg10 mi
4:15 AM46 °FClear.5 mph76%29.40 "Hg10 mi
3:55 AM46 °FClear.6 mph76%29.41 "Hg10 mi
3:35 AM48 °FClear.5 mph76%29.42 "Hg10 mi
3:15 AM48 °FClear.3 mph76%29.42 "Hg10 mi
2:55 AM48 °FClear.5 mph82%29.42 "Hg10 mi
2:35 AM46 °FClear.5 mph82%29.42 "Hg10 mi
1:55 AM50 °FClear.No wind76%29.43 "Hg10 mi
1:35 AM50 °FClear.5 mph76%29.43 "Hg10 mi
1:15 AM50 °FClear.5 mph76%29.44 "Hg10 mi
12:55 AM50 °FClear.8 mph76%29.44 "Hg10 mi
12:35 AM50 °FClear.7 mph76%29.44 "Hg10 mi
12:15 AM48 °FClear.7 mph82%29.45 "Hg10 mi
11:55 PM
Oct 25
50 °FPassing clouds.6 mph76%29.46 "Hg10 mi
11:35 PM50 °FOvercast.5 mph82%29.47 "Hg10 mi
10:55 PM50 °FMostly cloudy.3 mph82%29.51 "Hg10 mi
10:35 PM52 °FMostly cloudy.5 mph77%29.51 "Hg10 mi
10:15 PM52 °FMostly cloudy.7 mph72%29.52 "Hg8 mi
9:55 PM52 °FMostly cloudy.7 mph72%29.52 "Hg10 mi
9:35 PM52 °FOvercast.5 mph72%29.52 "Hg10 mi
9:15 PM52 °FOvercast.3 mph72%29.53 "Hg10 mi
8:55 PM50 °FMostly cloudy.5 mph76%29.53 "Hg10 mi
8:35 PM50 °FMostly cloudy.5 mph71%29.53 "Hg10 mi
8:15 PM46 °FOvercast.6 mph82%29.54 "Hg10 mi
7:55 PM45 °FPassing clouds.5 mph76%29.54 "Hg10 mi
7:35 PM45 °FClear.3 mph81%29.55 "Hg10 mi
7:15 PM46 °FClear.3 mph76%29.55 "Hg10 mi
6:55 PM48 °FPassing clouds.No wind71%29.55 "Hg10 mi
6:35 PM50 °FOvercast.No wind67%29.56 "Hg10 mi
6:15 PM50 °FScattered clouds.5 mph67%29.56 "Hg10 mi
5:55 PM52 °FSunny.5 mph62%29.57 "Hg10 mi
5:35 PM57 °FSunny.No wind48%29.56 "Hg10 mi
5:15 PM61 °FSunny.6 mph39%29.56 "Hg10 mi
4:55 PM61 °FSunny.8 mph39%29.56 "Hg10 mi
4:35 PM63 °FSunny.8 mph34%29.56 "Hg10 mi
4:15 PM64 °FSunny.9 mph30%29.56 "Hg10 mi
3:55 PM64 °FSunny.7 mph28%29.56 "Hg10 mi
3:35 PM64 °FSunny.5 mph32%29.58 "Hg10 mi
3:15 PM63 °FSunny.5 mph34%29.58 "Hg10 mi
2:55 PM63 °FSunny.6 mph34%29.58 "Hg10 mi
2:35 PM64 °FSunny.7 mph32%29.59 "Hg10 mi
2:15 PM64 °FSunny.6 mph34%29.60 "Hg10 mi
1:55 PM64 °FSunny.9 mph37%29.61 "Hg10 mi
1:35 PM64 °FSunny.10 mph37%29.62 "Hg10 mi
1:15 PM63 °FSunny.10 mph39%29.63 "Hg10 mi
12:55 PM63 °FSunny.10 mph42%29.63 "Hg10 mi
12:35 PM63 °FSunny.8 mph42%29.63 "Hg10 mi
12:15 PM61 °FSunny.6 mph42%29.64 "Hg10 mi
11:55 AM63 °FSunny.5 mph39%29.65 "Hg10 mi
11:35 AM61 °FSunny.No wind42%29.66 "Hg10 mi
11:15 AM59 °FSunny.8 mph48%29.68 "Hg10 mi
10:55 AM57 °FSunny.8 mph51%29.68 "Hg10 mi
10:35 AM55 °FSunny.8 mph55%29.68 "Hg10 mi
10:15 AM55 °FSunny.6 mph55%29.69 "Hg10 mi
9:55 AM55 °FSunny.9 mph51%29.69 "Hg10 mi
9:35 AM54 °FSunny.7 mph54%29.70 "Hg10 mi
9:15 AM52 °FPassing clouds.5 mph62%29.70 "Hg10 mi
8:55 AM50 °FPartly sunny.No wind62%29.71 "Hg10 mi
8:35 AM52 °FPartly sunny.5 mph62%29.71 "Hg10 mi
8:15 AM46 °FPassing clouds.No wind76%29.72 "Hg10 mi
7:55 AM45 °FPassing clouds.No wind76%29.72 "Hg10 mi
7:35 AM45 °FOvercast.No wind76%29.71 "Hg10 mi
7:15 AM45 °FOvercast.6 mph76%29.71 "Hg10 mi
6:55 AM45 °FOvercast.No wind76%29.71 "Hg10 mi
6:35 AM45 °FOvercast.No wind76%29.70 "Hg10 mi
6:15 AM45 °FOvercast.No wind76%29.70 "Hg10 mi
5:55 AM45 °FOvercast.No wind76%29.71 "Hg10 mi
5:35 AM45 °FOvercast.3 mph76%29.71 "Hg10 mi
5:15 AM45 °FOvercast.3 mph81%29.71 "Hg10 mi
Weather by CustomWeather, © 2014

See weather overviewHow to use our weather pages